RYR537 EGSS-EKAH

Flight info

Callsign RYR537
Flight time N/A
Altitude 35000
Route CLN DCT EFMIH M604 GIVPO DCT LARGA DCT SOPTO P144 GOLUM N866 AMRAM DCT INTET T55 LUTUS DESOM·ILS/28L
Aircraft B738/M-SDE2E3FGHIRWXY/LB1

Departure

Time N/A
Airport London Stansted Airport (EGSS)

Arrival

Time 2026-05-04 08:48
Airport Aarhus Airport (EKAH)
Time Latitude Longitude Altitude Speed Heading
2026-05-04 08:33 56.00357 9.60090 17331 ft 390 kts 75°
2026-05-04 08:33 56.00863 9.63610 16942 ft 388 kts 75°
2026-05-04 08:35 56.05386 9.95441 13692 ft 368 kts 75°
2026-05-04 08:35 56.06014 9.99858 13227 ft 366 kts 75°
2026-05-04 08:35 56.06634 10.04242 12795 ft 362 kts 75°
2026-05-04 08:35 56.07242 10.08576 12367 ft 359 kts 75°
2026-05-04 08:37 56.10619 10.32982 11004 ft 306 kts 74°
2026-05-04 08:37 56.11117 10.36647 10663 ft 305 kts 74°
2026-05-04 08:37 56.11620 10.40335 10348 ft 302 kts 74°
2026-05-04 08:38 56.12117 10.43974 10006 ft 300 kts 73°
2026-05-04 08:38 56.12608 10.47577 9518 ft 299 kts 73°
2026-05-04 08:38 56.13090 10.51135 9018 ft 295 kts 73°
2026-05-04 08:40 56.15724 10.71019 6039 ft 282 kts 74°
2026-05-04 08:40 56.16164 10.74389 5558 ft 278 kts 74°
2026-05-04 08:40 56.16604 10.77716 5045 ft 276 kts 73°
2026-05-04 08:41 56.17059 10.81063 4587 ft 275 kts 73°
2026-05-04 08:41 56.17512 10.84402 4172 ft 277 kts 73°
2026-05-04 08:41 56.17960 10.87736 3846 ft 274 kts 73°
2026-05-04 08:41 56.18550 10.90907 3765 ft 260 kts 63°
2026-05-04 08:42 56.19463 10.93526 3648 ft 243 kts 37°
2026-05-04 08:42 56.20886 10.95056 3289 ft 236 kts 17°
2026-05-04 08:42 56.22414 10.96091 2919 ft 238 kts 15°
2026-05-04 08:42 56.23995 10.97114 2478 ft 243 kts 14°
2026-05-04 08:43 56.25598 10.98136 2021 ft 247 kts 12°
2026-05-04 08:43 56.27219 10.98303 1896 ft 225 kts 339°
2026-05-04 08:43 56.28402 10.96808 1904 ft 201 kts 299°
2026-05-04 08:43 56.28647 10.94502 1939 ft 186 kts 262°
2026-05-04 08:44 56.28287 10.92360 1933 ft 175 kts 254°
2026-05-04 08:44 56.27886 10.90351 1922 ft 167 kts 258°
2026-05-04 08:46 56.28796 10.76949 1436 ft 141 kts 283°
2026-05-04 08:46 56.28969 10.75240 1250 ft 140 kts 281°
2026-05-04 08:46 56.29146 10.73536 1079 ft 138 kts 281°
2026-05-04 08:46 56.29321 10.71843 896 ft 140 kts 280°
2026-05-04 08:47 56.29490 10.70090 722 ft 142 kts 282°
2026-05-04 08:47 56.29675 10.68332 546 ft 143 kts 281°
2026-05-04 08:47 56.29861 10.66565 365 ft 145 kts 278°
2026-05-04 08:47 56.30040 10.64772 192 ft 146 kts 281°
2026-05-04 08:48 56.30219 10.63006 78 ft 134 kts 279°
2026-05-04 08:48 56.30344 10.61777 81 ft 68 kts 280°
2026-05-04 08:48 56.30410 10.61146 81 ft 45 kts 281°
2026-05-04 08:48 56.30444 10.60792 81 ft 22 kts 282°
2026-05-04 08:49 56.30509 10.60699 81 ft 12 kts 360°
2026-05-04 08:50 56.30519 10.62001 80 ft 23 kts 100°
2026-05-04 08:50 56.30531 10.62230 79 ft 16 kts 43°
2026-05-04 08:51 56.30620 10.62371 78 ft 15 kts 39°
2026-05-04 08:51 56.30662 10.62464 78 ft 10 kts 76°
2026-05-04 08:51 56.30660 10.62599 78 ft 10 kts 97°
2026-05-04 08:51 56.30674 10.62659 77 ft 5 kts 40°
2026-05-04 08:52 56.30706 10.62667 77 ft 4 kts
2026-05-04 08:52 56.30717 10.62670 77 ft 0 kts